Weather History for Newport Airport, OR

Change the Weather History Date:

Saturday, February 16, 2013

  Actual Average Record
Temperature  
Mean Temperature 44 °F -  
Max Temperature 48 °F 50 °F 60 °F (2005)
Min Temperature 37 °F 40 °F 30 °F (2006)
Degree Days  
Heating Degree Days 22    
Moisture  
Dew Point 43 °F    
Average Humidity 92    
Maximum Humidity 100    
Minimum Humidity 81    
Precipitation  
Precipitation 0.03 in - - ()
Sea Level Pressure  
Sea Level Pressure 30.33 in    
Wind  
Wind Speed 6 mph (WNW)    
Max Wind Speed 12 mph    
Max Gust Speed 18 mph    
Visibility 7 miles    
Events Rain    
Averages and records for this station are not official NWS values.
T = Trace of Precipitation, MM = Missing Value Source: NWS Daily Summary

Daily Weather History Graph

Daily Weather History Graph

Search for Another Location

Airport:

Trip Planner

Search our weather history database for the weather conditions in past years. The results will help you decide how hot, cold, wet, or windy it might be!

Date:

Astronomy

Feb. 16, 2013 Rise Set
Actual Time 7:14 AM PST 5:46 PM PST
Civil Twilight 6:44 AM PST 6:16 PM PST
Nautical Twilight 6:10 AM PST 6:50 PM PST
Astronomical Twilight 5:36 AM PST 7:24 PM PST
Moon 10:13 AM PST (2/16) 12:09 AM PST (2/16)
Length of Visible Light 11h 32m
Length of Day
10h 32m
Waxing Crescent, 40% of the Moon is Illuminated
Feb 16
Waxing Crescent
Feb 17
First Quarter
Feb 25
Full
Mar 4
Last Quarter
Mar 11
New

Hourly Weather History & Observations

Time (PST) Temp. Windchill Dew Point Humidity Pressure Visibility Wind Dir Wind Speed Gust Speed Precip Events Conditions
12:15 AM 44.6 °F 42.2 °F 44.6 °F 100% 30.30 in 10.0 mi SW 4.6 mph - N/A   Overcast
12:35 AM 44.6 °F 40.2 °F 44.6 °F 100% 30.31 in 7.0 mi SW 8.1 mph - N/A   Overcast
12:55 AM 46.4 °F 42.9 °F 44.6 °F 93% 30.31 in 7.0 mi SW 6.9 mph - N/A   Overcast
1:15 AM 46.4 °F 42.9 °F 44.6 °F 93% 30.31 in 7.0 mi SW 6.9 mph - N/A   Overcast
1:35 AM 46.4 °F 43.5 °F 44.6 °F 93% 30.31 in 7.0 mi WSW 5.8 mph - N/A   Overcast
1:55 AM 46.4 °F 44.3 °F 44.6 °F 93% 30.30 in 7.0 mi West 4.6 mph - N/A   Overcast
2:15 AM 44.6 °F 43.1 °F 44.6 °F 100% 30.30 in 5.0 mi West 3.5 mph - N/A   Overcast
2:35 AM 44.6 °F 41.4 °F 44.6 °F 100% 30.30 in 7.0 mi West 5.8 mph - N/A   Overcast
2:55 AM 44.6 °F 41.4 °F 44.6 °F 100% 30.29 in 5.0 mi West 5.8 mph - N/A   Overcast
3:15 AM 44.6 °F 41.4 °F 44.6 °F 100% 30.29 in 5.0 mi West 5.8 mph - N/A   Overcast
3:35 AM 44.6 °F 43.1 °F 42.8 °F 93% 30.29 in 7.0 mi West 3.5 mph - N/A   Overcast
3:55 AM 44.6 °F - 44.6 °F 100% 30.29 in 3.0 mi Calm Calm - N/A   Light Drizzle
4:15 AM 44.6 °F - 44.6 °F 100% 30.30 in 3.0 mi Calm Calm - N/A   Overcast
4:55 AM 44.6 °F 39.7 °F 44.6 °F 100% 30.30 in 4.0 mi NW 9.2 mph - N/A   Light Drizzle
5:15 AM 44.6 °F 40.2 °F 42.8 °F 93% 30.31 in 2.5 mi NW 8.1 mph - N/A   Overcast
5:35 AM 44.6 °F 43.1 °F 42.8 °F 93% 30.31 in 5.0 mi WNW 3.5 mph - N/A   Overcast
5:55 AM 44.6 °F 42.2 °F 44.6 °F 100% 30.31 in 7.0 mi WNW 4.6 mph - N/A   Overcast
6:15 AM 44.6 °F 41.4 °F 42.8 °F 93% 30.32 in 7.0 mi NW 5.8 mph - N/A   Overcast
6:35 AM 44.6 °F 42.2 °F 42.8 °F 93% 30.32 in 7.0 mi WNW 4.6 mph - N/A   Overcast
6:55 AM 44.6 °F 42.2 °F 42.8 °F 93% 30.32 in 10.0 mi West 4.6 mph - N/A   Overcast
7:15 AM 44.6 °F 42.2 °F 42.8 °F 93% 30.32 in 7.0 mi West 4.6 mph - N/A   Overcast
7:35 AM 44.6 °F 42.2 °F 42.8 °F 93% 30.32 in 5.0 mi West 4.6 mph - N/A   Overcast
10:15 AM 46.4 °F 45.2 °F 44.6 °F 93% 30.35 in 5.0 mi WSW 3.5 mph - N/A   Light Drizzle
10:35 AM 46.4 °F 43.5 °F 46.4 °F 100% 30.35 in 5.0 mi SSW 5.8 mph - N/A   Overcast
10:55 AM 46.4 °F 42.9 °F 44.6 °F 93% 30.34 in 2.0 mi West 6.9 mph - N/A Rain Rain
11:15 AM 46.4 °F 44.3 °F 44.6 °F 93% 30.35 in 7.0 mi West 4.6 mph - N/A   Mostly Cloudy
11:35 AM 46.4 °F 44.3 °F 44.6 °F 93% 30.35 in 7.0 mi WSW 4.6 mph - N/A   Overcast
11:55 AM 46.4 °F 44.3 °F 44.6 °F 93% 30.35 in 5.0 mi WSW 4.6 mph - N/A   Overcast
12:15 PM 46.4 °F 44.3 °F 44.6 °F 93% 30.35 in 5.0 mi WSW 4.6 mph - N/A   Overcast
12:35 PM 48.2 °F - 46.4 °F 93% 30.34 in 5.0 mi West 6.9 mph - N/A   Overcast
12:55 PM 46.4 °F 42.4 °F 44.6 °F 93% 30.34 in 3.0 mi West 8.1 mph - N/A Rain Rain
1:15 PM 46.4 °F 44.3 °F 44.6 °F 93% 30.34 in 5.0 mi West 4.6 mph - 0.01 in Rain Light Rain
1:35 PM 46.4 °F 42.4 °F 44.6 °F 93% 30.33 in 7.0 mi West 8.1 mph - 0.01 in   Overcast
1:55 PM 48.2 °F - 44.6 °F 87% 30.33 in 7.0 mi West 6.9 mph - 0.01 in   Overcast
2:15 PM 48.2 °F - 44.6 °F 87% 30.32 in 7.0 mi West 6.9 mph - N/A   Overcast
2:35 PM 46.4 °F 43.5 °F 44.6 °F 93% 30.33 in 5.0 mi NW 5.8 mph - N/A   Light Drizzle
2:55 PM 48.2 °F - 44.6 °F 87% 30.33 in 7.0 mi NW 6.9 mph - N/A   Scattered Clouds
3:15 PM 48.2 °F - 44.6 °F 87% 30.33 in 7.0 mi WNW 4.6 mph - N/A   Scattered Clouds
3:35 PM 48.2 °F - 42.8 °F 82% 30.33 in 7.0 mi NW 10.4 mph 16.1 mph N/A   Overcast
3:55 PM 46.4 °F 41.5 °F 42.8 °F 87% 30.33 in 5.0 mi WNW 10.4 mph - N/A   Overcast
4:15 PM 46.4 °F 42.4 °F 42.8 °F 87% 30.33 in 7.0 mi NW 8.1 mph - N/A   Overcast
4:35 PM 46.4 °F 41.9 °F 42.8 °F 87% 30.33 in 7.0 mi NNW 9.2 mph - N/A   Overcast
4:55 PM 46.4 °F 41.5 °F 42.8 °F 87% 30.33 in 5.0 mi NNW 10.4 mph - N/A Rain Rain
5:15 PM 44.6 °F - 41.0 °F 87% 30.32 in 10.0 mi Calm Calm - N/A   Overcast
5:35 PM 46.4 °F 43.5 °F 41.0 °F 81% 30.32 in 5.0 mi NW 5.8 mph - N/A   Haze
5:55 PM 46.4 °F 42.4 °F 42.8 °F 87% 30.32 in 7.0 mi NW 8.1 mph - N/A   Overcast
6:15 PM 46.4 °F 41.5 °F 42.8 °F 87% 30.33 in 5.0 mi NNW 10.4 mph - N/A Rain Light Rain
6:35 PM 44.6 °F 38.8 °F 42.8 °F 93% 30.33 in 7.0 mi NW 11.5 mph - N/A   Overcast
6:55 PM 44.6 °F 39.2 °F 42.8 °F 93% 30.34 in 5.0 mi NNW 10.4 mph 18.4 mph 0.01 in Rain Light Rain
7:15 PM 42.8 °F 39.3 °F 42.8 °F 100% 30.34 in 3.0 mi North 5.8 mph - 0.01 in Rain Rain
7:35 PM 42.8 °F 37.5 °F 41.0 °F 93% 30.34 in 4.0 mi North 9.2 mph - 0.01 in   Light Drizzle
7:55 PM 42.8 °F 40.1 °F 41.0 °F 93% 30.34 in 10.0 mi North 4.6 mph - 0.01 in   Overcast
8:15 PM 42.8 °F 39.3 °F 39.2 °F 87% 30.34 in 10.0 mi North 5.8 mph - N/A   Overcast
8:35 PM 42.8 °F 41.1 °F 39.2 °F 87% 30.34 in 10.0 mi North 3.5 mph - N/A   Overcast
8:55 PM 41.0 °F - 37.4 °F 87% 30.34 in 10.0 mi Calm Calm - N/A   Mostly Cloudy
9:15 PM 41.0 °F 39.0 °F 37.4 °F 87% 30.34 in 10.0 mi WNW 3.5 mph - N/A   Scattered Clouds
9:35 PM 42.8 °F 41.1 °F 41.0 °F 93% 30.35 in 7.0 mi North 3.5 mph - N/A   Light Drizzle
9:55 PM 41.0 °F 38.0 °F 37.4 °F 87% 30.34 in 10.0 mi NW 4.6 mph - N/A   Scattered Clouds
10:15 PM 42.8 °F 38.6 °F 39.2 °F 87% 30.35 in 10.0 mi North 6.9 mph 17.3 mph N/A   Mostly Cloudy
10:35 PM 41.0 °F - 39.2 °F 93% 30.35 in 10.0 mi Calm Calm - N/A   Overcast
10:55 PM 41.0 °F - 37.4 °F 87% 30.35 in 10.0 mi Calm Calm - N/A   Mostly Cloudy
11:15 PM 41.0 °F 37.1 °F 39.2 °F 93% 30.34 in 10.0 mi NNE 5.8 mph - N/A   Scattered Clouds
11:35 PM 39.2 °F 37.0 °F 37.4 °F 93% 30.33 in 10.0 mi ENE 3.5 mph - N/A   Clear
11:55 PM 37.4 °F - 35.6 °F 93% 30.34 in 10.0 mi Calm Calm - N/A   Scattered Clouds